UUEE Airport Information

Runway Information
Runway 07L Length 11647 ft width 197 ft
Elevation 620 ft Threshold 0 ft Heading 75
Runway 25R Length 11647 ft Width 197 ft
Elevation 622 ft Threshold 0 ft Heading 255
Runway 07R Length 12139 ft width 197 ft
Elevation 617 ft Threshold 0 ft Heading 75
Runway 25L Length 12139 ft Width 197 ft
Elevation 620 ft Threshold 0 ft Heading 255
Airport Frequencies
Type APP Name APP 1 Frequency 119.3 MHZ
Type APP Name APP 2 Frequency 123.7 MHZ
Type ATIS Name ATIS Frequency 125.125 MHZ
Type GND Name GND Frequency 119 MHZ
Type PMSV Name VOLMET Frequency 127.875 MHZ
Type RDR Name RADAR Frequency 118.1 MHZ
Type TWR Name TWR Frequency 120.7 MHZ
Airport Navaids
Type NDB Name Sheremetyevo Frequency 338 KHZ
Type NDB Name Sheremetyevo Frequency 700 KHZ
Type NDB Name Sheremetyevo Frequency 770 KHZ
Type NDB Name Sheremetyevo Frequency 380 KHZ
Type NDB Name Sheremetyevo Frequency 338 KHZ
Type VOR-DME Name Sheremetyevo Frequency 114600 KHZ
Type NDB Name Sheremetyevo Frequency 700 KHZ
Type NDB Name Sheremetyevo Frequency 770 KHZ
Type NDB Name Sheremetyevo Frequency 380 KHZ
Airport Weather Information & NOTAM
ADDS - METARS form results

(0617 UTC 19 August 2018)
 
METAR text: UUEE 190600Z VRB01MPS CAVOK 21/12 Q1021 R24C/CLRD62 R24L/CLRD62 NOSIG
Conditions at: UUEE (MOSCOW/SHEREMET', RU) observed 0600 UTC 19 August 2018
Temperature: 21.0°C (70°F)
Dewpoint: 12.0°C (54°F) [RH = 56%]
Pressure (altimeter): 30.15 inches Hg (1021.0 mb)
Winds: variable direction winds at 2 MPH (2 knots; 1.0 m/s)
Visibility: 6 or more miles (10+ km)
Ceiling: ceiling and visibility are OK
Clouds: unknown
Weather: no significant weather observed at this time

METAR text: UUEE 190530Z VRB01MPS CAVOK 20/12 Q1021 R24C/CLRD62 R24L/CLRD62 NOSIG
Conditions at: UUEE (MOSCOW/SHEREMET', RU) observed 0530 UTC 19 August 2018
Temperature: 20.0°C (68°F)
Dewpoint: 12.0°C (54°F) [RH = 60%]
Pressure (altimeter): 30.15 inches Hg (1021.0 mb)
Winds: variable direction winds at 2 MPH (2 knots; 1.0 m/s)
Visibility: 6 or more miles (10+ km)
Ceiling: ceiling and visibility are OK
Clouds: unknown
Weather: no significant weather observed at this time